Tracking 19846 objects as of 20-Sep-2019
HD Live streaming from Space Station
objects crossing your sky now

FENGYUN 1C DEB

Track FENGYUN 1C DEB now!
10-day predictions


NORAD ID: 32156
Int'l Code: 1999-025CTA
Perigee: 744.1 km
Apogee: 870.9 km
Inclination: 99.4 °
Period: 100.9 minutes
Semi major axis: 7178 km
RCS: 0.0148 m2 (small)
Launch date: May 10, 1999
Source: People's Republic of China (PRC)
Launch site: Taiyaun Space Center, China (TSC)

Note: This is SATELLITE DEBRIS
aabbcc
Your satellite tracking list
Your tracking list is empty




NASA's NSSDC Master Catalog

Two Line Element Set (TLE):
1 32156U 99025CTA 19260.18563419  .00000092  00000-0  55210-4 0  9995
2 32156  99.3547 242.3356 0088366 112.7967 248.2576 14.27420110634251
Source of the keplerian elements: AFSPC